Location: Kr�ppen
(49.1504°N, 7.5264°E)
Time: 14:03:17
(UTC+00:00)

Daily predictions for brighter satellites

Satellite Brightness Start Highest point End
(mag) Time Altitude Azimuth Time Altitude Azimuth Time Altitude Azimuth
Cosmos 1538 Rocket 4.5 16:33:47 10° N 16:38:37 38° ENE 16:43:26 10° SE
NOAA 12 4.1 16:33:35 10° SSE 16:38:47 74° ENE 16:44:02 10° NNW
PAYLOAD B 4.3 16:34:50 10° SSE 16:40:20 88° WSW 16:45:54 10° NNW
Cosmos 1536 Rocket 3.8 16:36:16 10° SSW 16:40:39 79° W 16:45:07 10° N
NOSS 7 (H) 4.2 16:37:44 10° SW 16:41:02 79° NW 16:43:58 10° NE
Cosmos 2279 Rocket 4.2 16:35:35 10° N 16:41:43 51° ENE 16:47:47 10° SSE
ATLAS 5 CENTAUR R/B 1.5 16:38:06 10° SSW 16:42:07 74° SE 16:46:41 10° NE
COSMO-SKYMED 1 3.9 16:39:46 10° NE 16:43:00 20° E 16:46:11 10° SE
Cosmos 968 Rocket 4.1 16:39:01 10° SW 16:44:03 57° WNW 16:49:07 10° NNE
H-2A R/B 2.5 16:41:27 10° SSE 16:45:30 88° E 16:49:45 10° NNW
CZ-2D R/B 4.3 16:43:24 10° ESE 16:46:30 24° ENE 16:49:37 10° NNE
Envisat 4.0 16:42:12 10° S 16:47:10 54° W 16:52:11 10° NNW
Cosmos 1025 Rocket 4.3 16:43:35 10° SSW 16:47:43 44° WNW 16:51:56 10° N
Lacrosse 5 2.0 16:42:47 10° NW 16:47:47 55° NNE 16:52:44 10° ESE
ADEOS Rocket 3.9 16:43:20 10° N 16:49:13 49° WNW 16:54:37 10° SW
Cosmos 1354 Rocket 4.1 16:46:04 10° SSW 16:51:23 83° ESE 16:56:45 10° NNE
FengYun 1-2 T 4.2 16:48:24 10° SSE 16:53:56 73° ENE 16:59:33 10° NNW
NOSS 3-1 (C) 4.5 16:49:00 10° NW 16:55:27 38° NNE 17:02:56 10° E
SL-14 R/B 3.2 16:52:46 10° S 16:56:38 82° E 17:00:35 10° NNE
Cosmos 1634 Rocket 4.2 16:50:31 10° N 16:56:47 84° W 17:03:04 10° S
ISS -1.7 16:54:49 10° S 16:56:58 16° SE 16:59:08 10° E
Okean-O 3.7 16:57:20 10° ESE 17:00:49 23° ENE 17:04:17 10° N
Okean O Rocket 1.6 16:57:16 10° SSE 17:01:43 87° ENE 17:06:10 10° NNW
CORIOLIS 4.3 16:56:53 10° SSE 17:02:18 86° WSW 17:07:43 10° NNW
RESURS DK-1 3.3 17:01:03 10° SW 17:05:03 47° NW 17:09:04 10° NNE
Cosmos 2263 Rocket 2.4 16:59:43 10° SSW 17:05:25 78° WNW 17:11:07 10° NNE
Meteor 2-5 Rocket 3.7 17:03:08 10° S 17:08:43 88° WNW 17:14:17 10° NNE
Cosmos 1455 3.2 17:05:31 10° NNE 17:08:43 25° ENE 17:11:55 10° SE
Helios 1A Rocket 4.2 17:05:53 10° ESE 17:08:55 20° ENE 17:11:58 10° NNE
Aureole 2 Rocket 3.5 17:07:09 10° SSE 17:09:31 21° ESE 17:10:57 16° ENE
NOAA 11 4.4 17:06:01 10° SSE 17:11:32 81° WSW 17:17:04 10° NNW
USA 229 DEB 4.5 17:06:26 10° NW 17:12:56 36° NNE 17:19:08 12° E
Cosmos 1606 Rocket 3.6 17:08:36 10° N 17:13:00 85° W 17:17:25 10° S
USA 229 4.5 17:06:32 10° NW 17:13:01 36° NNE 17:19:10 13° E
Cosmos 1300 3.2 17:09:54 10° NNW 17:13:41 62° W 17:17:27 10° S
H-2A R/B 2.1 17:09:31 10° NNE 17:14:02 89° W 17:18:23 10° SSW
Cosmos 1689 Rocket 4.3 17:17:53 11° ESE 17:17:53 11° ESE 17:18:09 10° ESE
YAOGAN 1 3.4 17:13:05 10° SE 17:16:48 29° ENE 17:20:32 10° N
Cosmos 1892 Rocket 3.6 17:13:05 10° S 17:17:18 54° E 17:21:33 10° NNE
SMAP 4.1 17:14:18 10° S 17:18:49 50° W 17:23:22 10° NNW
COSMOS 2406 4.5 17:15:06 10° N 17:19:28 21° NE 17:22:13 16° ENE
ARGOS 4.0 17:15:17 10° ESE 17:19:41 27° ENE 17:24:07 10° N
Cosmos 2228 3.5 17:16:19 10° NNW 17:20:33 64° W 17:24:48 10° S
ERS-2 3.2 17:20:31 15° NE 17:22:39 25° E 17:25:44 10° SSE
CZ-2C R/B 4.1 17:26:40 16° E 17:26:40 16° E 17:30:01 10° SE
NOSS 3-1 (A) 4.5 17:22:07 10° NW 17:28:35 38° NNE 17:34:20 17° E
CZ-4B R/B 1.4 17:25:19 10° NNE 17:28:40 57° E 17:31:56 10° S
BREEZE-M DEB (TANK) 1.5 17:27:10 10° W 17:29:33 77° N 17:30:28 30° E
IRS-1C Rocket 4.1 17:25:10 10° SSE 17:30:20 63° ENE 17:35:33 10° N
SKYMED 2 3.6 17:27:02 10° NNE 17:31:20 56° E 17:35:36 10° S
SJ 16-02 1.9 17:27:49 10° SSE 17:31:49 35° ESE 17:34:30 18° NE
ATLAS 2AS CENTAUR R/B 3.8 17:27:32 10° WSW 17:35:04 44° NNW 17:42:09 11° NE
Cosmos 1833 Rocket 3.8 17:33:00 10° N 17:37:25 23° NE 17:38:57 21° ENE
Cosmos 158 Rocket 4.1 17:32:46 10° NNW 17:38:02 58° ENE 17:43:20 10° SE
Meteor 1-24 Rocket 4.0 17:33:30 10° SSW 17:38:47 64° WNW 17:44:05 10° N
Cosmos 923 Rocket 4.1 17:35:05 10° NNW 17:40:22 55° ENE 17:45:35 10° SE
Cosmos 1844 4.1 17:35:23 10° S 17:40:37 41° ESE 17:44:19 19° NE
Cosmos 2082 Rocket 3.7 17:37:35 10° N 17:41:18 17° NE 17:42:06 17° NE
Nadezhda 4 Rocket 4.0 17:36:23 10° S 17:42:30 60° E 17:48:36 10° NNE
Cosmos 1939 Rocket 3.5 17:39:23 10° S 17:43:27 60° W 17:47:30 10° NNW
H-2A R/B 2.0 17:41:48 10° SE 17:46:39 54° ENE 17:51:39 10° N
Cosmos 2058 Rocket 3.2 17:42:15 10° NNW 17:46:46 78° W 17:51:16 10° S
Cosmos 1680 Rocket 3.7 17:42:15 10° NNW 17:47:22 49° ENE 17:52:25 10° SE
Cosmos 1898 Rocket 4.5 17:43:59 10° SSE 17:48:14 25° E 17:48:38 25° E
CZ-4C R/B 3.6 17:44:07 10° W 17:48:58 31° NNW 17:53:55 13° NE
CZ-2C R/B 3.2 17:44:57 10° SSE 17:50:17 89° WSW 17:55:58 10° NNW
PSLV R/B 4.2 17:49:10 18° NNE 17:52:07 48° E 17:56:12 10° S
COSMOS 2455 2.8 17:47:30 10° SSW 17:53:32 89° ESE 17:58:25 17° NE
Meteor 2-13 Rocket 4.4 17:47:40 10° S 17:53:43 69° E 17:59:50 10° NNE
MOS 1 Rocket 2.9 17:52:02 10° NNE 17:56:23 77° ESE 18:00:39 10° S
SJ-11-01 4.2 17:52:18 10° SSE 17:56:54 59° ENE 18:01:31 10° N
CZ-4 R/B 1.2 17:53:41 10° SSE 17:57:47 80° ENE 18:01:50 10° NNW
Cosmos 1844 Rocket 2.6 17:53:42 10° SSW 17:59:19 68° ESE 18:03:17 20° NE
USA 234 3.6 17:55:48 25° ENE 17:59:24 49° N 18:05:39 10° WNW
Cosmos 1818 3.5 17:56:07 10° SSW 18:01:29 66° SE 18:04:19 28° NE
Iridium 4 Rocket 3.8 17:57:11 10° N 18:02:43 48° E 18:07:50 10° SSE
Okean 1-7 Rocket 3.7 17:58:26 10° SSW 18:02:59 80° W 18:07:35 10° N
CREW DRAGON DEMO-1 DEB 2.8 18:02:18 10° WNW 18:05:11 67° SSW 18:05:17 66° S
SAR-Lupe-4 3.4 18:06:12 51° NE 18:06:53 65° ESE 18:10:26 10° S
Meteor 2-10 Rocket 4.4 18:03:12 10° NNW 18:08:34 52° W 18:13:41 10° S
Cosmos 1626 Rocket 3.4 18:04:54 10° S 18:09:14 66° E 18:12:05 21° NNE
X-37B 2.1 18:07:14 10° SW 18:09:46 26° S 18:09:46 26° S
Meteor 1-21 Rocket 4.0 18:07:31 10° S 18:13:02 77° E 18:18:36 10° NNE
Cosmos 1553 Rocket 4.4 18:10:00 10° N 18:16:03 41° ENE 18:18:15 32° ESE
Cosmos 44 3.8 18:13:04 10° S 18:17:27 40° ESE 18:17:27 40° ESE
SAR-Lupe-1 3.9 18:17:08 66° NNE 18:17:35 85° ESE 18:21:09 10° SSW
Cosmos 2026 Rocket 4.0 18:13:26 10° SSE 18:19:21 55° E 18:25:23 10° NNE
COSMO-SKYMED 1 3.4 18:15:13 10° N 18:19:26 49° WNW 18:23:37 10° SW
Cosmos 1937 Rocket 4.5 18:17:02 10° SSE 18:20:18 29° SE 18:20:18 29° SE
CSL-04 Rocket 3.5 18:17:06 10° SSE 18:22:29 75° ENE 18:27:59 10° NNW
Cosmos 2112 Rocket 3.8 18:19:57 10° NNW 18:25:14 82° ENE 18:28:48 21° SSE
ATLAS 5 CENTAUR R/B 3.3 18:23:40 10° W 18:27:16 25° NNW 18:29:12 20° N
Lacrosse 5 2.8 18:25:55 10° WNW 18:30:44 45° SW 18:34:00 19° SSE
Aureole 3 4.4 18:28:21 10° NNW 18:31:38 35° W 18:34:29 10° SSW
ISS -2.7 18:29:58 10° WSW 18:32:21 43° SW 18:32:21 43° SW
SL-08 RB Rocket 3.6 18:36:36 67° NNE 18:36:36 67° NNE 18:40:39 10° N
Okean-O 3.6 18:32:44 10° S 18:37:01 47° W 18:41:19 10° NNW
Meteor 2-8 Rocket 4.4 18:32:59 10° N 18:39:05 87° W 18:45:12 10° S
Meteor 2-15 4.3 18:33:14 10° N 18:39:24 69° ENE 18:45:32 10° SSE
Aureole 2 Rocket 4.3 18:39:49 10° WSW 18:42:23 24° WNW 18:42:23 24° WNW
Cosmos 2344 4.2 18:34:09 10° NW 18:43:13 78° NE 18:51:01 26° SE
Helios 1A Rocket 3.8 18:39:44 10° S 18:43:45 49° W 18:47:49 10° NNW
Cosmos 1455 4.2 18:41:01 10° NNW 18:44:19 28° W 18:47:37 10° SSW
Cosmos 2195 Rocket 4.5 18:38:54 10° S 18:45:14 86° W 18:51:38 10° N
NOSS 3-1 (C) 4.0 18:39:46 10° NW 18:47:11 88° SW 18:51:58 30° SE
Cosmos 1602 Rocket 3.8 18:45:28 10° SSW 18:49:47 66° WNW 18:50:09 62° NW
Cosmos 2263 Rocket 4.4 18:46:14 10° W 18:50:18 20° NW 18:54:22 10° N
USA 281 4.1 18:52:47 30° NNE 18:52:47 30° NNE 18:57:14 10° NNW
YAOGAN 1 4.2 18:48:53 10° SSW 18:52:49 34° W 18:56:47 10° NNW
ERS-2 4.1 18:55:04 23° NW 18:56:10 27° WNW 18:59:17 10° SW
Cosmos 1627 Rocket 4.5 18:50:49 10° SSW 18:57:00 80° W 19:03:19 10° N
Cosmos 990 Rocket 3.9 18:52:41 10° SSW 18:57:54 80° WNW 18:58:09 77° NNW
Cosmos 1703 4.5 18:55:08 10° SSW 18:58:22 40° W 18:58:22 40° W
Cosmos 1428 Rocket 4.5 18:52:57 10° S 18:59:15 82° W 19:05:37 10° N
ARGOS 3.8 18:54:24 10° S 18:59:38 55° W 19:04:56 10° NNW
COSMOS 2406 3.2 18:58:51 10° NNW 19:04:20 78° N 19:04:20 78° N
USA 229 DEB 3.8 18:57:27 10° NW 19:04:45 90° S 19:06:38 56° SE
USA 229 3.8 18:57:33 10° NW 19:04:50 89° NE 19:06:40 57° SE
USA 267 3.7 19:07:16 43° SSE 19:07:16 43° SSE 19:12:24 10° SSW
CZ-2C R/B 2.7 19:08:10 74° SSW 19:08:10 74° SSW 19:13:15 10° SSW
Meteor 2-15 Rocket 4.3 19:02:53 10° N 19:09:05 89° ENE 19:09:30 79° SSE
SJ 16-02 3.1 19:06:35 10° WSW 19:10:27 29° WNW 19:11:33 26° NNW
CZ-3B R/B 3.5 19:16:21 10° WNW 19:19:38 45° SSW 19:20:08 44° SSW
NOSS 3-1 (A) 4.0 19:12:55 10° NW 19:20:21 87° SW 19:21:50 64° SSE
Cosmos 1833 Rocket 3.2 19:16:25 10° NNW 19:20:41 53° NW 19:20:41 53° NW
H-2A R/B 4.2 19:22:30 10° SW 19:26:26 23° W 19:30:28 10° NW
Cosmos 2082 Rocket 3.4 19:20:52 10° NNW 19:23:58 32° NNW 19:23:58 32° NNW
ATLAS 2AS CENTAUR R/B 4.2 19:21:33 10° WNW 19:28:03 27° N 19:29:35 26° NNE
Cosmos 1898 Rocket 4.4 19:24:50 10° SW 19:28:59 46° W 19:28:59 46° W
CZ-4C R/B 4.2 19:34:42 10° NW 19:39:06 23° N 19:39:06 23° N
COSMOS 2455 4.5 19:35:11 10° W 19:40:15 27° NNW 19:41:34 25° NNW
USA 234 3.4 19:43:09 66° NW 19:43:09 66° NW 19:48:41 10° NW
Cosmos 1844 Rocket 4.4 19:38:55 10° WSW 19:43:42 27° NW 19:44:59 25° NNW
